JH5EWP-13 Weather Reports


time (UTC)temp
C
wind
direction
speed
KPH
gust
KPH
rain 1hr
cm
rain 24hr
cm
rain mn
cm
humidity
%
barometer
mb
20260509102123 17 181 0.0 3.2 0.00 0.00 0.00 53 1007.9
20260509100623 17 220 1.6 4.8 0.00 0.00 0.00 47 1007.8
20260509095123 18 189 3.2 4.8 0.00 0.00 0.00 44 1007.7
20260509093623 18 205 3.2 8.0 0.00 0.00 0.00 32 1007.3
20260509092123 20 189 3.2 4.8 0.00 0.00 0.00 34 1007.5
20260509090623 20 239 4.8 8.0 0.00 0.00 0.00 34 1007.5
20260509085123 20 252 4.8 9.7 0.00 0.00 0.00 34 1007.2
20260509083623 20 254 4.8 9.7 0.00 0.00 0.00 41 1007.1
20260509082123 21 242 4.8 9.7 0.00 0.00 0.00 38 1007.3
20260509080623 21 270 6.4 9.7 0.00 0.00 0.00 37 1007.2
20260509075123 21 255 4.8 11.3 0.00 0.00 0.00 37 1007.1
20260509073623 21 260 6.4 14.5 0.00 0.00 0.00 41 1007.0
20260509072123 20 242 8.0 12.9 0.00 0.00 0.00 36 1007.1
20260509070624 21 234 6.4 11.3 0.00 0.00 0.00 40 1007.2
20260509065124 21 242 4.8 12.9 0.00 0.00 0.00 39 1007.0
20260509063624 20 258 8.0 14.5 0.00 0.00 0.00 38 1007.2
20260509062124 20 232 9.7 19.3 0.00 0.00 0.00 41 1007.3
20260509060624 21 257 11.3 19.3 0.00 0.00 0.00 39 1007.3
20260509055123 20 231 11.3 19.3 0.00 0.00 0.00 32 1007.3
20260509053624 21 281 9.7 17.7 0.00 0.00 0.00 32 1007.4
20260509052123 22 266 9.7 17.7 0.00 0.00 0.00 30 1007.4
20260509050623 22 241 8.0 12.9 0.00 0.00 0.00 25 1007.3
20260509045123 22 209 8.0 14.5 0.00 0.00 0.00 31 1007.4
20260509043623 23 228 6.4 14.5 0.00 0.00 0.00 24 1007.4
20260509042123 25 338 6.4 17.7 0.00 0.00 0.00 15 1007.7
20260509040623 24 353 6.4 14.5 0.00 0.00 0.00 15 1007.8
20260509035122 24 340 4.8 14.5 0.00 0.00 0.00 15 1007.9
20260509033622 23 306 9.7 20.9 0.00 0.00 0.00 15 1008.1
20260509032122 23 302 8.0 16.1 0.00 0.00 0.00 15 1008.1
20260509030622 23 316 8.0 14.5 0.00 0.00 0.00 20 1008.1
20260509025123 22 334 8.0 14.5 0.00 0.00 0.00 20 1008.3
20260509023624 22 307 8.0 14.5 0.00 0.00 0.00 20 1008.5
20260509022124 22 322 6.4 16.1 0.00 0.00 0.00 20 1008.7
20260509020624 22 296 9.7 14.5 0.00 0.00 0.00 21 1008.7
20260509015124 22 318 8.0 14.5 0.00 0.00 0.00 22 1009.1
20260509013624 21 307 6.4 16.1 0.00 0.00 0.00 23 1009.1
20260509012124 21 301 8.0 14.5 0.00 0.00 0.00 22 1009.0
20260509010623 21 304 6.4 17.7 0.00 0.00 0.00 24 1009.2
20260509005123 21 295 6.4 14.5 0.00 0.00 0.00 25 1009.1
20260509003623 21 310 6.4 14.5 0.00 0.00 0.00 27 1008.9
20260509002123 21 302 6.4 14.5 0.00 0.00 0.00 24 1009.1
20260509000623 21 306 3.2 9.7 0.00 0.00 0.00 25 1009.2
20260508235123 21 68 4.8 12.9 0.00 0.00 0.00 21 1009.4
20260508233623 21 337 1.6 6.4 0.00 0.00 0.00 24 1009.3
20260508232123 21 23 1.6 4.8 0.00 0.00 0.00 30 1009.6
20260508230623 21 82 1.6 4.8 0.00 0.00 0.00 31 1009.6
20260508225123 20 83 1.6 4.8 0.00 0.00 0.00 31 1009.2
20260508223623 19 59 1.6 4.8 0.00 0.00 0.00 35 1009.6
20260508222123 18 46 1.6 4.8 0.00 0.00 0.00 36 1009.4
20260508220623 18 61 0.0 4.8 0.00 0.00 0.00 40 1009.3
20260508215123 16 46 1.6 3.2 0.00 0.00 0.00 45 1009.2
20260508213622 15 101 0.0 3.2 0.00 0.00 0.00 51 1009.0
20260508212123 14 79 1.6 4.8 0.00 0.00 0.00 53 1008.7
20260508210622 13 45 0.0 4.8 0.00 0.00 0.00 60 1008.5
20260508205122 12 122 0.0 1.6 0.00 0.00 0.00 62 1008.5
20260508203623 11 122 0.0 3.2 0.00 0.00 0.00 62 1008.5
20260508202123 12 118 1.6 4.8 0.00 0.00 0.00 61 1008.3
20260508200623 11 135 0.0 3.2 0.00 0.00 0.00 62 1008.3
20260508195123 11 135 0.0 1.6 0.00 0.00 0.00 61 1008.0
20260508193622 12 109 1.6 4.8 0.00 0.00 0.00 62 1008.0
20260508192124 11 90 1.6 6.4 0.00 0.00 0.00 62 1007.6
20260508190624 12 92 1.6 4.8 0.00 0.00 0.00 62 1007.6
20260508185124 12 103 1.6 4.8 0.00 0.00 0.00 61 1007.3
20260508183624 12 109 3.2 6.4 0.00 0.00 0.00 60 1007.1
20260508182124 12 108 1.6 4.8 0.00 0.00 0.00 60 1007.2
20260508180624 12 90 0.0 4.8 0.00 0.00 0.00 60 1006.9
20260508175123 12 90 0.0 3.2 0.00 0.00 0.00 60 1007.0
20260508173623 12 90 0.0 1.6 0.00 0.00 0.00 58 1007.1
20260508172123 12 97 1.6 4.8 0.00 0.00 0.00 53 1006.7
20260508170622 12 95 1.6 6.4 0.00 0.00 0.00 53 1006.6
20260508165123 12 102 1.6 4.8 0.00 0.00 0.00 53 1006.5
20260508163623 12 101 1.6 4.8 0.00 0.00 0.00 53 1006.4
20260508162123 13 90 1.6 4.8 0.00 0.00 0.00 53 1006.4
20260508160623 13 106 3.2 4.8 0.00 0.00 0.00 53 1006.4
20260508155122 13 100 3.2 6.4 0.00 0.00 0.00 53 1006.4
20260508153622 13 91 4.8 9.7 0.00 0.00 0.00 53 1006.4
20260508152122 13 99 4.8 9.7 0.00 0.00 0.00 53 1006.1
20260508150622 13 106 1.6 6.4 0.00 0.00 0.00 53 1006.1
20260508145122 13 100 3.2 4.8 0.00 0.00 0.00 53 1006.0
20260508143622 14 101 3.2 6.4 0.00 0.00 0.00 52 1006.1
20260508142122 14 104 3.2 4.8 0.00 0.00 0.00 50 1006.0
20260508140622 15 126 3.2 8.0 0.00 0.00 0.00 47 1005.9
20260508135123 15 104 3.2 8.0 0.00 0.00 0.00 48 1005.7
20260508133623 15 91 3.2 4.8 0.00 0.00 0.00 52 1005.7
20260508132122 15 90 4.8 9.7 0.00 0.00 0.00 52 1005.5
20260508130622 15 99 3.2 9.7 0.00 0.00 0.00 52 1005.9
20260508125122 15 94 4.8 9.7 0.00 0.00 0.00 52 1005.6
20260508123622 16 94 4.8 9.7 0.00 0.00 0.00 50 1005.4
20260508122122 16 96 3.2 9.7 0.00 0.00 0.00 49 1005.2
20260508120624 16 60 1.6 4.8 0.00 0.00 0.00 56 1005.1
20260508115123 16 1 0.0 3.2 0.00 0.00 0.00 52 1004.8
20260508113623 16 270 0.0 1.6 0.00 0.00 0.00 42 1004.6
20260508112123 16 270 0.0 1.6 0.00 0.00 0.00 42 1004.5
20260508110623 16 270 0.0 0.0 0.00 0.00 0.00 40 1004.0
20260508105123 17 270 0.0 0.0 0.00 0.00 0.00 40 1003.7
20260508103623 17 277 0.0 3.2 0.00 0.00 0.00 33 1003.6